Wind_Speed
85 86 86 87 87 88 89 90 91 92 93 93 94 95 95 96 97 98 98 99 100 101 101 102 103 103 104 105 106 106 107 107 108 108 109 109 110 110 111 111 112 112 113 113 114 114 114 115 115 114 114 114 114 114 113 113 113 113 112 112 113 113 113 113 112 111 111 110 110 109 109 108 108 107 107 106 106 106 106 106 106 105 105 105 105 105
87 87 88 88 89 90 91 92 92 93 94 95 96 96 97 98 99 99 100 101 102 102 103 104 104 105 106 106 107 108 108 109 109 110 110 111 111 112 112 113 113 114 114 115 115 115 115 115 116 115 115 115 114 114 113 113 113 112 112 112 112 112 112 112 111 111 110 110 109 109 109 108 107 107 106 106 106 106 105 105 105 105 104 104 104 104
89 89 90 90 91 92 93 94 94 95 96 96 97 98 98 99 100 101 102 102 103 104 105 105 106 106 107 108 108 109 109 110 110 111 111 112 113 113 113 114 114 115 115 116 116 116 116 116 116 116 115 115 114 114 113 112 112 111 111 111 111 111 111 111 110 109 109 109 108 108 108 107 107 106 106 106 105 105 104 104 104 104 104 103 103 103
90 91 91 92 93 93 94 95 96 97 97 98 99 99 100 100 101 102 103 103 104 105 106 106 107 108 108 109 109 110 110 111 111 112 112 113 113 114 114 115 115 116 116 116 116 116 116 115 115 115 114 114 113 112 112 111 110 110 110 110 110 110 109 109 108 108 107 107 107 107 106 106 106 106 105 105 104 104 103 103 102 102 102 102 102 102
92 92 93 94 94 95 96 97 98 98 99 99 100 100 101 101 102 103 104 104 105 106 107 107 108 109 109 110 110 110 111 111 111 112 112 113 114 114 115 115 116 116 116 116 116 115 115 114 114 114 113 112 111 111 110 109 108 108 108 108 108 107 107 106 106 105 105 105 105 105 104 104 104 104 104 104 103 103 102 101 101 100 100 100 100 100
93 94 95 95 96 97 97 98 99 100 100 101 101 101 102 102 103 104 104 105 106 107 107 108 109 109 110 110 111 111 111 111 112 112 112 113 113 114 114 115 115 115 115 115 114 114 113 113 112 112 111 110 109 108 107 107 106 106 106 106 106 105 104 103 103 103 102 102 102 102 102 102 102 102 102 102 101 100 100 99 99 98 98 98 98 98
95 95 96 97 97 98 99 99 100 101 101 102 102 102 103 103 104 104 105 106 106 107 108 108 109 109 110 110 111 111 111 111 111 111 112 112 112 113 113 113 114 114 114 113 113 112 112 111 110 109 108 107 107 106 105 105 105 104 104 104 103 102 101 101 100 100 100 100 100 99 100 100 100 100 99 99 98 98 97 97 96 96 96 96 96 96
96 97 97 98 98 99 100 101 101 102 102 102 103 103 104 104 104 105 105 106 107 107 108 108 109 109 110 110 110 111 111 111 111 111 111 111 111 111 111 112 112 112 112 111 111 110 110 109 108 107 106 105 104 104 104 103 103 102 102 101 100 99 98 98 97 97 97 97 96 96 96 96 96 96 95 95 95 94 94 94 93 93 93 93 93 93
98 98 99 99 100 100 101 102 102 103 103 103 104 104 104 105 105 105 105 106 106 107 107 108 108 109 109 109 109 110 110 110 109 109 109 109 109 110 110 109 109 109 109 109 109 108 107 106 106 104 103 103 102 102 102 101 101 100 99 98 97 96 95 95 94 94 94 93 93 93 92 92 92 91 91 91 91 91 90 90 90 90 90 90 90 90
99 99 100 100 101 101 102 103 104 104 104 104 105 105 105 105 105 106 106 106 106 106 106 107 107 108 108 108 108 108 108 108 108 108 108 108 108 108 108 108 107 107 107 106 106 105 105 104 103 102 101 100 99 99 99 98 98 97 96 95 94 93 92 91 91 90 90 90 89 89 88 87 87 87 87 86 86 86 87 87 86 86 86 86 86 87
100 100 101 102 102 103 103 104 105 105 105 106 106 106 106 105 105 105 106 106 106 106 106 106 106 106 106 107 107 107 106 106 106 106 106 106 107 106 106 106 105 105 104 104 103 103 102 101 100 99 98 97 96 95 95 94 94 93 93 92 91 90 89 88 87 87 86 86 85 85 84 83 83 83 83 82 82 82 82 83 82 82 82 83 83 83
101 102 102 103 104 104 105 105 106 106 106 106 106 107 107 106 105 105 105 105 105 105 105 105 105 105 105 105 105 105 105 104 104 104 105 105 105 105 105 104 103 102 102 101 100 100 99 98 97 96 94 93 92 91 91 90 90 89 88 88 87 86 85 84 83 83 82 82 81 81 80 80 79 79 79 79 79 79 79 79 79 79 79 79 80 80
103 103 104 104 105 105 106 106 107 107 107 107 107 107 107 106 105 105 104 104 104 104 103 103 103 103 103 103 103 103 103 103 103 103 103 103 103 103 103 102 101 100 99 98 97 96 95 94 93 91 90 89 88 87 86 86 85 85 84 83 83 82 81 80 79 79 78 78 78 77 77 76 76 75 75 75 75 75 75 75 75 75 75 76 76 77
104 105 105 106 106 106 107 107 107 107 107 107 107 106 106 106 105 105 104 104 103 102 102 102 102 102 102 102 102 102 102 101 101 100 100 100 100 100 100 99 98 97 96 94 93 92 91 89 87 86 85 84 83 83 82 82 81 81 80 79 78 78 77 76 76 75 75 74 74 73 73 72 72 72 72 72 71 71 71 71 71 71 71 72 72 73
105 106 106 107 107 107 107 108 108 108 108 107 106 106 105 105 104 104 103 103 102 101 100 100 100 100 100 100 100 100 100 100 99 98 97 97 97 96 96 95 94 93 91 90 89 87 86 84 83 82 81 80 79 79 78 78 77 77 76 75 74 74 73 72 72 71 71 70 70 70 69 69 69 69 68 68 68 68 67 67 67 68 68 68 69 69
106 106 107 108 108 108 108 108 108 107 107 106 106 105 104 104 103 102 102 101 101 100 99 99 98 98 98 98 98 98 98 98 96 95 94 93 93 92 91 91 89 88 86 85 84 82 80 79 78 77 77 76 76 75 75 74 73 73 72 71 70 70 69 69 68 68 67 67 67 66 66 66 65 65 65 65 64 64 64 64 64 64 64 65 65 65
106 107 107 108 108 108 108 107 107 107 106 105 104 103 103 102 102 101 100 100 99 98 98 97 97 97 97 96 96 95 94 94 92 91 89 89 88 88 87 86 84 83 81 80 79 77 76 75 74 73 73 72 72 71 71 70 70 69 68 67 67 66 66 65 65 64 64 64 64 63 63 62 62 62 62 61 61 61 61 61 61 61 61 61 62 62
107 107 107 108 108 108 107 107 106 106 105 104 103 102 101 100 99 99 98 97 97 97 96 95 95 94 94 93 92 91 90 89 87 86 84 84 84 84 83 81 80 78 76 75 74 73 72 71 70 70 69 69 68 68 67 67 66 65 64 64 63 63 62 62 62 61 61 61 60 60 60 59 59 59 59 58 58 58 58 58 58 58 58 58 58 59
107 108 108 108 108 107 107 106 105 104 103 102 101 100 99 98 97 97 96 95 95 94 94 93 92 91 90 89 88 87 85 84 82 80 79 79 80 79 79 77 75 73 72 71 70 69 68 67 67 66 66 65 65 65 64 63 63 62 61 61 60 59 59 59 59 58 58 58 57 57 57 56 56 56 56 55 55 55 55 55 54 54 55 55 55 55
108 108 108 107 107 107 106 105 104 103 102 100 100 98 97 96 95 94 94 93 92 92 91 90 89 87 86 85 84 82 80 78 77 75 75 75 76 76 75 73 71 70 69 68 67 66 65 64 64 63 63 63 62 62 61 60 59 59 58 57 57 57 56 56 56 55 55 55 54 54 54 54 53 53 53 52 52 52 52 52 52 52 52 52 52 52
108 108 107 107 106 106 105 104 102 101 100 98 97 97 96 94 93 92 91 91 90 89 87 86 85 83 82 81 79 77 75 74 72 71 71 72 72 72 70 69 67 66 66 65 64 63 62 61 61 61 60 60 59 59 58 57 56 56 55 55 54 54 53 53 53 52 52 52 51 51 51 51 50 50 50 50 49 49 49 49 49 49 49 49 49 50
107 107 107 106 105 104 103 102 100 99 98 97 96 95 94 93 92 90 89 88 87 85 84 82 81 80 78 77 75 73 72 70 68 68 68 69 69 68 67 65 64 63 63 62 61 60 59 59 58 58 58 57 56 56 55 54 53 53 52 52 52 51 51 50 50 50 49 49 49 49 48 48 48 47 47 47 47 46 46 46 46 46 46 46 47 47
106 106 106 105 104 103 102 100 99 97 96 95 94 93 92 91 90 89 87 85 84 82 80 78 77 76 75 74 72 70 68 66 65 65 65 65 66 65 63 62 61 61 60 59 58 57 57 56 56 56 55 54 54 53 52 51 51 50 50 49 49 48 48 48 47 47 47 47 46 46 46 45 45 45 45 44 44 44 44 44 44 44 44 44 44 44
106 105 105 104 103 102 100 99 97 96 95 93 92 91 89 88 87 85 84 82 80 78 77 75 74 73 71 70 68 67 65 63 62 62 62 62 62 61 61 60 59 59 58 57 56 55 55 54 54 54 53 52 51 51 50 49 48 48 47 47 46 46 45 45 45 45 44 44 44 44 43 43 43 42 42 42 42 42 42 41 41 41 41 41 42 42
105 104 104 103 102 100 99 98 96 95 93 92 90 88 87 85 83 82 80 78 77 75 73 72 71 70 68 67 65 64 62 61 60 59 59 59 59 59 58 57 57 56 55 54 53 53 52 52 52 52 51 50 49 48 47 46 46 45 45 44 44 43 43 43 43 42 42 42 41 41 41 41 40 40 40 40 40 39 39 39 39 39 39 39 39 39
104 103 103 101 100 99 97 96 95 93 92 90 88 86 84 82 80 78 77 75 73 72 70 69 68 67 66 64 63 61 60 59 58 57 57 56 56 56 56 55 54 54 53 52 51 50 50 50 50 49 48 48 47 46 45 44 43 43 42 42 42 41 41 41 40 40 40 39 39 39 39 39 38 38 38 37 37 37 37 37 37 36 36 36 37 37
103 102 101 100 99 98 96 95 93 92 90 88 86 84 81 79 77 75 74 72 70 69 68 67 65 64 63 62 60 59 58 57 56 55 55 54 54 54 54 53 52 51 50 50 49 48 48 48 48 47 46 45 44 43 42 42 41 41 40 40 40 39 39 39 38 38 38 38 37 37 37 37 36 36 36 35 35 35 35 34 34 34 34 34 34 34
103 102 101 99 98 96 95 93 91 90 88 86 83 81 78 76 74 72 71 69 68 67 65 64 63 62 61 60 58 57 56 55 54 54 53 52 52 52 51 51 50 49 48 47 47 46 46 46 46 45 44 43 42 41 40 40 39 39 38 38 38 37 37 37 36 36 36 36 36 35 35 35 34 34 34 33 33 33 32 32 32 32 32 32 32 32
102 101 99 98 96 95 93 91 89 87 85 83 80 78 76 73 72 70 68 67 65 64 63 62 61 60 58 57 56 55 54 53 52 52 51 50 50 50 49 48 48 47 46 45 45 44 44 45 44 43 42 41 40 39 38 38 37 37 37 36 36 36 35 35 35 35 34 34 34 34 33 33 33 32 32 32 31 31 31 30 30 30 30 29 29 29
100 99 97 96 94 92 90 88 86 84 82 80 77 75 73 71 69 67 66 64 63 62 61 60 59 57 56 55 54 53 52 51 51 50 49 49 48 48 47 46 46 45 44 43 43 43 43 43 42 41 40 39 38 37 37 36 36 36 35 35 35 34 34 33 33 33 33 32 32 32 31 31 31 31 30 30 29 29 29 28 28 28 28 28 27 28
98 97 95 93 91 89 87 84 82 80 78 76 74 72 70 68 67 65 64 62 61 60 59 58 57 55 54 53 52 51 51 50 49 48 47 47 46 46 45 44 44 43 42 41 41 41 41 41 41 40 39 37 36 36 35 35 34 34 34 33 33 33 32 32 32 31 31 31 30 30 30 30 29 29 29 28 28 27 27 27 26 26 26 26 26 26
95 93 91 89 87 85 83 81 79 77 75 73 71 69 68 66 64 63 62 61 59 58 57 56 55 53 52 51 50 50 49 48 48 46 45 45 44 44 43 42 42 41 41 40 39 39 39 39 39 38 37 36 35 34 34 33 33 33 32 32 31 31 31 30 30 30 30 29 29 29 28 28 28 27 27 27 26 26 26 25 25 24 24 24 24 24
92 90 87 85 83 81 79 77 75 74 72 70 68 67 65 64 62 61 60 59 57 56 55 54 53 51 50 49 48 48 47 47 46 45 44 43 42 42 41 41 40 40 39 39 38 38 37 37 37 37 36 35 34 33 33 32 31 31 30 30 30 29 29 29 28 28 28 28 28 27 27 27 26 26 26 25 25 24 24 24 23 23 23 23 23 23
88 85 83 81 79 77 75 74 72 70 69 67 65 64 63 62 60 59 58 57 55 54 53 52 51 50 49 48 47 46 46 45 44 43 42 41 41 40 40 39 39 38 38 38 37 37 36 36 36 35 34 34 33 32 31 31 30 29 29 28 28 28 28 27 27 26 26 26 26 26 26 25 25 25 24 24 23 23 23 22 22 22 22 21 21 21
84 82 79 77 76 74 72 71 69 68 66 64 63 62 61 60 58 57 56 55 54 52 51 50 49 48 47 46 45 45 44 44 43 42 41 40 40 39 39 38 38 37 37 37 36 36 35 35 34 34 33 32 32 31 30 29 29 28 27 27 27 26 26 25 25 25 25 25 25 24 24 24 24 23 23 22 22 22 21 21 21 20 20 20 20 19
80 78 76 74 73 71 70 68 67 65 64 62 61 60 59 58 57 55 54 53 52 50 49 48 47 46 45 44 44 43 43 42 41 41 40 39 38 38 37 37 36 36 36 35 35 35 34 34 33 33 32 31 30 30 29 28 27 26 26 25 25 24 24 24 23 23 23 23 23 23 23 23 22 22 21 21 20 20 20 19 19 19 19 18 18 18
76 74 73 71 70 69 67 66 65 63 62 60 59 58 57 56 55 54 52 51 50 49 47 47 45 44 43 43 42 41 41 40 40 39 38 38 37 37 36 36 35 35 34 34 34 34 34 33 33 32 31 30 29 28 27 27 26 25 24 24 23 23 22 22 22 21 21 21 21 21 21 21 21 20 20 19 19 18 18 18 18 17 17 16 16 16
72 71 70 69 67 66 65 64 63 61 60 59 58 56 55 54 53 52 51 49 48 47 46 45 44 43 42 41 40 40 39 39 38 38 37 36 36 35 35 35 34 34 33 33 33 33 32 32 31 31 30 29 28 27 26 25 24 23 23 22 21 21 20 20 20 20 19 19 20 20 20 19 19 19 18 18 17 17 17 16 16 15 15 15 14 14
69 68 67 66 65 64 63 62 61 59 58 57 56 55 53 52 51 50 49 48 46 45 44 43 42 41 40 40 39 38 38 37 37 36 36 35 35 34 34 34 33 33 32 32 31 31 31 30 30 30 29 28 27 26 25 24 23 22 21 20 20 19 19 18 18 18 18 18 18 18 18 18 18 18 17 17 16 15 15 14 14 14 13 13 12 12
67 66 65 64 63 62 61 60 59 58 56 55 54 53 52 51 49 48 47 46 45 44 43 42 41 40 39 38 38 37 36 36 36 35 35 34 34 33 33 32 32 32 31 30 30 29 29 29 29 28 28 27 26 25 24 22 21 20 19 18 18 17 17 16 16 16 16 16 16 16 17 17 17 17 16 16 15 14 13 13 13 12 12 11 11 11
64 64 63 62 61 60 59 58 57 56 55 53 52 51 50 49 48 47 46 44 43 42 41 40 39 38 38 37 36 36 35 35 34 34 34 33 33 32 32 31 31 30 30 29 29 28 27 27 27 27 26 26 25 24 23 22 20 19 18 17 16 16 15 15 15 15 15 15 15 15 15 16 16 16 15 15 14 13 13 12 11 11 11 10 10 10
62 62 61 60 59 58 57 56 55 54 53 52 50 49 48 47 46 45 44 43 42 40 40 39 38 37 36 36 35 35 34 34 33 33 32 32 32 31 31 30 30 29 28 28 27 27 26 25 25 25 25 25 24 24 23 22 20 19 17 16 15 14 14 14 14 14 14 14 14 14 15 15 15 15 15 14 14 13 12 11 11 10 10 9 9 9
60 60 59 58 57 56 55 54 53 52 51 50 49 48 47 45 44 43 42 41 40 39 38 37 36 36 35 34 34 34 33 33 32 32 31 31 31 30 29 29 28 28 27 26 26 25 25 24 24 23 23 23 23 23 22 22 21 19 18 16 15 14 13 12 13 13 13 13 14 14 14 14 14 14 14 14 13 13 12 11 10 10 9 9 9 8
59 58 57 56 55 54 53 52 51 50 49 48 47 46 45 44 43 42 41 39 39 38 37 36 35 35 34 33 33 32 32 31 31 31 30 30 29 29 28 28 27 27 26 25 25 24 24 23 23 22 22 22 22 22 21 21 21 20 19 18 16 14 13 12 12 12 12 13 13 13 14 14 14 14 14 14 13 13 12 11 10 9 9 9 8 8
57 56 55 54 53 52 51 50 49 48 47 46 45 44 44 42 41 40 39 38 37 36 36 35 34 33 33 32 32 31 31 30 30 30 29 29 28 28 27 26 26 25 25 24 24 23 23 22 22 22 21 21 21 21 21 21 21 20 20 19 17 16 14 13 12 12 12 12 12 13 13 13 14 14 14 14 13 13 12 10 10 9 9 9 9 9
56 55 54 53 52 50 49 48 47 46 46 45 44 43 42 41 40 39 38 37 36 35 34 33 33 32 32 31 31 30 30 30 29 29 28 27 27 26 26 25 25 24 24 23 23 23 22 22 22 21 21 21 21 21 20 21 20 20 20 20 19 17 16 14 13 12 12 12 12 12 13 13 13 14 14 14 13 13 12 11 10 9 9 9 9 9
54 53 52 51 50 49 48 47 46 45 44 43 42 41 40 39 38 37 36 35 35 34 33 32 32 31 31 30 30 29 29 29 28 28 27 26 26 25 24 24 23 23 22 22 22 22 21 21 21 21 21 21 21 21 21 21 21 21 21 20 20 19 18 16 14 13 12 12 12 12 12 13 13 13 14 14 13 13 12 11 10 10 10 10 10 10
53 52 51 50 49 47 46 45 44 43 43 42 41 40 39 38 37 36 35 34 33 33 32 31 31 30 30 29 29 28 28 28 27 27 26 25 24 24 23 22 22 21 21 21 21 21 21 21 21 20 20 20 20 20 20 20 20 21 21 20 20 20 19 18 16 15 13 12 12 12 12 12 13 13 13 13 13 13 12 12 11 11 10 10 10 10
51 51 50 48 47 46 45 44 43 42 41 40 40 39 38 37 36 35 34 33 32 31 31 30 29 29 29 28 28 27 27 26 26 26 25 24 23 22 22 21 20 20 20 20 20 20 20 20 20 20 20 19 19 19 19 19 20 20 20 20 20 20 20 19 18 16 15 13 12 11 12 12 12 13 13 13 13 13 13 12 12 12 11 11 10 10
50 49 48 47 45 44 43 42 41 41 40 39 38 37 37 35 34 33 33 32 31 30 30 29 28 28 27 27 27 26 26 26 25 25 24 23 22 21 21 20 19 19 19 19 19 19 19 19 19 19 19 19 19 18 18 18 19 19 19 20 20 20 20 20 19 18 16 15 13 12 11 12 12 13 13 13 13 13 13 13 13 12 12 12 11 11
48 47 46 45 44 43 42 41 40 39 39 38 37 36 35 34 33 32 31 31 30 29 28 28 27 27 26 26 26 25 25 24 24 23 23 22 21 20 19 19 19 18 18 18 18 18 18 18 18 18 18 18 18 18 18 18 18 18 18 19 19 19 19 20 19 19 18 16 14 13 12 11 12 12 13 13 14 14 14 14 14 14 13 13 12 11
Wind_Direction
296 296 296 296 296 296 296 296 296 296 296 296 296 296 296 296 295 295 295 295 295 294 294 294 294 293 293 293 292 292 292 291 291 291 290 290 289 289 288 288 287 287 286 286 285 285 284 284 284 283 283 283 282 282 282 282 281 281 281 280 280 279 279 279 278 278 278 277 277 276 276 275 274 274 273 272 271 271 270 269 268 267 266 266 265 264
297 297 297 297 297 296 296 296 296 296 296 296 296 296 296 296 295 295 295 295 295 294 294 294 293 293 293 292 292 292 291 291 290 290 290 289 289 288 288 287 287 286 286 285 285 285 284 284 284 284 283 283 283 282 282 282 282 281 281 281 280 280 279 279 279 278 278 278 277 277 276 276 275 274 273 272 272 271 270 269 268 267 266 266 265 264
297 297 297 297 297 297 297 297 296 296 296 296 296 296 296 295 295 295 295 295 294 294 294 293 293 293 292 292 291 291 291 290 290 289 289 289 288 288 287 287 286 286 285 285 285 285 284 284 284 284 283 283 283 283 283 282 282 282 281 281 280 280 280 279 279 279 278 278 277 277 276 276 275 274 273 273 272 271 270 269 268 267 266 265 265 264
298 298 298 298 298 297 297 297 297 296 296 296 296 296 295 295 295 295 295 294 294 294 293 293 292 292 291 291 291 290 290 289 289 289 288 288 288 287 287 286 286 286 285 285 285 285 284 284 284 284 284 283 283 283 283 283 282 282 282 281 281 280 280 279 279 279 278 278 277 277 276 275 275 274 273 272 272 271 270 269 268 267 266 265 265 264
298 298 298 298 298 297 297 297 297 296 296 296 296 296 295 295 295 294 294 294 293 293 293 292 292 291 291 290 290 289 289 289 288 288 288 288 287 287 287 286 286 286 285 285 285 285 285 284 284 284 284 284 284 283 283 283 283 282 282 281 281 280 280 279 279 278 278 277 277 276 276 275 274 274 273 272 271 271 270 269 268 267 267 266 265 264
298 298 298 298 298 297 297 297 296 296 296 296 295 295 295 295 294 294 293 293 293 292 292 291 291 291 290 290 289 289 289 288 288 288 288 287 287 287 287 286 286 286 286 285 285 285 285 285 284 284 284 284 284 284 284 284 283 282 282 281 281 280 280 279 279 278 278 277 277 276 275 274 274 273 272 272 271 271 270 270 269 268 267 267 266 265
298 298 298 298 297 297 297 296 296 296 295 295 295 295 294 294 294 293 293 293 292 292 291 291 291 290 290 290 289 289 289 289 288 288 288 287 287 287 287 286 286 286 286 286 285 285 285 285 285 285 285 285 285 285 285 284 283 283 282 281 281 280 280 280 279 279 278 277 276 275 275 274 273 273 272 272 272 271 271 270 269 269 268 267 266 266
298 298 298 298 297 297 297 296 296 296 295 295 295 295 294 294 293 293 293 292 292 291 291 291 291 290 290 290 290 289 289 289 289 288 288 288 287 287 287 286 286 286 286 286 286 286 286 286 286 286 286 286 286 285 285 284 284 283 282 282 281 281 281 280 279 279 278 277 276 275 275 274 273 273 273 272 272 272 271 270 270 269 268 268 267 266
298 298 298 298 297 297 297 296 296 296 295 295 295 294 294 294 293 293 292 292 292 291 291 291 291 291 290 290 290 290 289 289 289 289 288 288 287 287 287 287 286 286 286 286 286 286 286 286 286 286 286 286 286 285 285 284 284 284 283 283 282 282 281 280 279 279 278 277 276 276 275 274 274 274 273 273 272 272 271 271 270 269 268 268 267 266
299 299 298 298 298 297 297 297 296 296 296 295 295 294 294 294 293 293 293 292 292 292 292 291 291 291 291 291 290 290 290 290 289 289 289 288 288 287 287 287 287 287 287 287 287 287 287 287 287 287 287 286 286 285 285 285 284 284 283 283 282 282 281 280 280 279 278 278 277 276 276 275 275 274 274 273 273 272 271 271 270 269 268 268 267 266
299 299 299 299 298 298 297 297 297 296 296 296 295 295 294 294 294 293 293 293 293 292 292 292 292 292 291 291 291 291 290 290 290 289 289 289 288 288 288 288 287 287 287 287 287 287 287 287 287 287 287 286 286 286 285 285 284 283 283 283 282 281 281 280 280 279 279 278 278 277 277 276 276 275 274 273 272 272 271 270 270 269 268 267 266 266
300 300 299 299 299 298 298 297 297 297 296 296 296 295 295 294 294 294 294 294 294 293 293 293 293 292 292 292 291 291 291 290 290 290 289 289 289 289 288 288 288 288 288 288 288 288 287 287 287 287 287 286 286 286 285 284 284 283 283 282 282 281 281 281 280 280 279 279 278 278 277 277 276 275 274 273 272 271 271 270 269 269 268 267 266 265
300 300 300 299 299 299 298 298 298 297 297 296 296 296 296 296 295 295 295 295 294 294 294 294 293 293 292 292 292 291 291 290 290 290 289 289 289 289 289 289 289 289 289 288 288 288 287 287 287 287 287 287 286 285 285 284 283 283 282 282 282 282 281 281 280 280 279 279 278 278 277 277 276 275 274 273 272 271 271 270 269 268 267 266 266 265
301 301 300 300 299 299 299 298 298 298 297 297 297 297 297 297 296 296 296 295 295 295 294 294 293 293 293 292 292 291 291 290 290 290 290 290 290 290 290 289 289 289 289 289 288 288 288 288 288 288 287 287 286 285 284 284 283 283 282 282 282 282 281 281 281 280 280 279 278 278 277 276 276 275 274 273 273 272 271 270 269 268 267 266 266 265
301 301 301 300 300 299 299 299 299 298 298 298 298 297 297 297 297 297 296 296 295 295 295 294 294 293 293 292 292 292 291 291 291 290 290 290 290 290 290 290 289 289 289 288 288 288 288 288 288 288 287 286 285 285 284 284 283 283 283 283 282 282 282 281 281 280 280 279 279 278 277 276 276 275 274 274 273 272 271 270 269 268 267 267 266 265
301 301 301 300 300 300 299 299 299 299 298 298 298 298 298 298 297 297 297 296 296 295 295 294 294 293 293 292 292 292 291 291 291 291 291 291 291 290 290 290 289 289 289 289 289 289 289 289 288 287 287 286 285 285 284 284 284 283 283 283 283 282 282 281 281 280 280 279 279 278 277 277 276 275 275 274 273 272 271 271 270 269 268 267 266 265
301 301 301 300 300 300 300 299 299 299 299 299 298 298 298 298 297 297 297 296 296 296 295 294 294 294 293 293 292 292 292 292 292 292 292 292 292 291 290 289 289 289 289 289 289 289 289 288 288 287 287 286 285 285 284 284 284 284 283 283 283 282 282 282 281 280 280 279 279 278 278 277 276 276 275 274 273 272 272 271 270 269 268 267 266 265
302 301 301 301 300 300 300 300 300 299 299 299 299 298 298 298 297 297 297 296 296 296 295 295 294 294 293 293 293 293 293 293 293 293 293 293 292 291 290 290 290 290 290 290 290 289 289 288 288 287 286 286 285 285 284 284 284 284 284 284 283 283 282 282 281 281 280 279 279 278 278 277 277 276 275 274 273 273 272 271 270 269 268 267 266 265
302 302 302 301 301 301 300 300 300 300 299 299 299 299 299 298 298 297 297 297 297 296 296 295 295 294 294 294 294 294 294 294 294 294 294 293 292 291 290 290 291 291 291 290 290 289 289 288 288 287 287 286 285 285 285 285 285 285 284 284 283 283 282 282 281 281 280 280 279 279 278 277 277 276 275 275 274 273 272 271 270 269 268 267 266 265
303 302 302 302 301 301 301 301 300 300 300 300 300 299 299 299 298 298 298 297 297 297 296 296 296 296 295 295 295 295 295 295 295 295 294 293 292 291 291 291 292 292 291 290 290 289 289 289 288 287 287 286 286 285 285 285 285 285 285 284 284 283 283 282 282 281 281 280 279 279 278 278 277 276 276 275 274 273 272 271 270 269 268 267 266 265
303 303 303 302 302 302 301 301 301 301 300 300 300 300 299 299 299 299 299 298 298 298 297 297 297 297 297 296 296 296 296 296 296 296 294 293 292 291 292 292 293 292 291 290 290 290 289 289 288 287 287 286 286 286 286 286 286 286 285 285 284 284 283 283 282 282 281 281 280 279 278 278 277 276 276 275 274 273 272 271 270 269 268 267 266 265
304 303 303 303 302 302 302 301 301 301 301 301 301 301 301 301 300 300 300 299 299 299 299 299 299 298 298 297 297 297 297 297 297 296 295 293 292 292 293 293 293 292 291 291 291 290 290 289 288 288 287 287 287 287 287 287 286 286 286 285 285 284 284 283 283 282 281 281 280 279 278 278 277 276 276 275 274 273 272 271 270 269 268 267 266 265
304 304 303 303 303 302 302 302 302 302 302 302 302 302 302 302 301 301 301 301 300 300 300 300 299 299 298 298 298 298 298 298 297 296 295 294 293 293 294 293 292 292 291 291 291 291 291 290 289 288 288 288 288 288 288 287 287 287 286 286 286 285 284 284 283 282 281 281 280 279 279 278 277 276 275 275 274 273 272 271 270 269 268 267 266 264
305 304 304 304 303 303 303 303 303 303 303 303 303 303 302 302 302 302 302 302 302 301 301 301 300 299 299 299 299 299 299 298 297 296 295 294 294 294 294 293 293 292 292 292 292 292 291 290 290 289 289 289 289 288 288 288 288 287 287 286 286 285 284 284 283 282 281 281 280 279 279 278 277 276 276 275 274 273 272 271 270 269 268 267 266 265
305 305 305 304 304 304 304 304 304 304 304 304 304 303 303 303 303 303 303 303 302 302 302 301 301 300 300 300 300 299 299 298 297 296 295 295 295 294 294 293 293 293 293 293 293 292 291 291 290 290 290 290 289 289 289 289 289 288 287 287 286 285 284 284 283 282 282 281 280 280 279 278 277 277 276 275 274 273 272 271 270 269 268 267 266 265
306 305 305 305 305 305 305 305 305 305 305 305 304 304 304 304 304 304 304 303 303 303 302 302 301 301 301 300 300 300 300 299 298 297 296 296 295 294 294 294 293 293 293 294 293 293 292 291 291 290 290 290 290 290 290 290 289 289 288 287 286 285 284 284 283 283 282 281 280 280 279 278 278 277 276 275 274 274 273 272 270 269 268 267 266 265
306 306 306 306 306 306 306 306 306 306 305 305 305 305 305 305 305 304 304 304 304 303 303 302 302 301 301 301 301 301 300 299 298 297 297 296 295 295 294 294 294 294 294 294 294 293 293 292 291 291 291 291 291 291 291 290 290 289 288 287 286 285 285 284 284 283 282 281 281 280 279 279 278 277 277 276 275 274 273 272 271 270 268 267 266 265
307 306 306 306 306 306 306 306 306 306 306 306 305 305 305 305 305 305 305 304 304 303 303 303 302 302 302 302 302 301 300 300 299 298 297 296 296 295 295 295 295 295 295 295 294 293 293 292 292 291 291 291 292 292 291 291 290 289 288 287 287 286 286 285 284 283 283 282 281 281 280 279 278 278 277 276 275 274 273 272 271 270 268 267 266 264
307 307 307 307 307 307 307 307 306 306 306 306 306 306 306 306 306 306 305 305 304 304 303 303 303 303 303 302 302 301 300 300 299 298 297 297 296 296 296 296 296 295 295 295 294 293 293 292 292 292 292 292 292 292 292 291 290 289 289 288 287 287 286 285 285 284 283 282 282 281 280 279 278 278 277 276 275 274 273 271 270 269 268 266 265 263
307 307 307 307 307 307 307 307 306 306 306 306 306 306 306 306 306 306 305 305 304 304 304 304 303 303 303 303 302 301 301 300 299 298 298 298 297 297 297 297 296 296 295 295 294 294 293 292 292 293 293 293 293 293 292 291 290 290 289 288 288 287 287 286 285 284 283 283 282 281 280 279 278 277 276 276 275 273 272 271 270 268 267 265 263 262
307 307 307 307 307 307 307 306 306 306 306 306 306 306 306 306 306 306 306 305 305 304 304 304 304 304 303 303 302 302 301 300 299 299 299 298 298 297 297 297 297 296 296 295 295 294 293 293 293 293 294 294 294 293 292 292 291 290 290 289 289 288 287 286 285 285 284 283 282 281 280 279 278 277 276 275 274 273 271 270 269 267 266 264 262 261
307 307 307 307 307 307 306 306 306 306 306 306 306 306 306 306 306 306 306 305 305 305 305 304 304 304 304 303 303 302 301 300 300 299 299 299 299 298 298 297 297 297 296 296 295 295 294 294 294 294 295 295 294 293 293 292 291 291 290 290 289 288 287 287 286 285 284 283 282 281 279 279 277 276 275 274 273 272 270 269 267 266 264 263 261 260
307 307 307 307 307 306 306 306 306 306 306 306 307 307 306 306 306 306 306 305 305 305 305 305 305 304 304 304 303 302 301 301 300 300 300 300 299 299 299 298 298 297 297 296 296 295 295 295 295 295 295 295 294 294 293 293 292 292 291 290 289 288 288 287 286 285 284 283 281 280 279 278 277 275 274 273 272 271 270 268 267 265 264 262 261 259
307 307 307 307 307 306 306 306 306 306 306 306 307 307 306 306 306 306 306 306 306 306 306 305 305 305 304 304 303 302 302 301 301 301 301 300 300 299 299 299 298 298 298 297 297 296 296 295 295 295 296 295 295 294 294 293 293 292 291 291 290 289 288 287 286 285 284 282 281 280 279 278 276 275 274 273 272 270 269 268 267 265 264 262 261 259
307 307 307 307 306 306 306 306 306 306 306 307 307 307 306 306 306 306 306 306 306 306 306 306 305 305 305 304 303 303 302 302 302 301 301 301 300 300 300 299 299 299 299 298 298 297 297 296 296 296 296 296 295 295 294 294 293 293 292 291 290 289 288 287 286 285 284 282 281 280 279 278 276 275 274 273 271 270 269 268 266 265 264 262 261 259
307 307 307 307 306 306 306 306 306 307 307 307 307 307 307 307 307 307 306 306 307 306 306 306 306 305 305 304 303 303 302 302 302 302 302 301 301 301 300 300 300 299 299 298 298 298 297 297 297 297 296 296 296 296 295 294 294 293 292 291 290 289 288 287 286 285 283 282 281 280 279 278 277 275 274 273 272 270 269 268 266 265 264 262 261 259
308 307 307 307 306 306 306 306 307 307 307 307 307 307 307 307 307 307 307 307 307 307 306 306 306 305 304 304 303 303 302 302 302 302 302 302 301 301 301 300 300 299 299 299 298 298 298 298 298 297 297 297 297 296 296 295 295 294 292 292 291 290 288 287 286 284 284 282 281 280 279 278 277 276 275 273 272 271 269 268 266 266 264 263 261 259
308 307 307 307 306 306 307 307 307 307 308 308 308 307 307 307 307 307 307 307 307 307 307 306 306 305 304 304 303 303 303 302 302 302 302 302 301 301 301 300 300 300 299 299 298 298 299 298 298 298 298 298 297 296 296 296 295 294 293 292 291 290 288 287 286 285 283 282 280 280 278 278 277 276 274 273 272 270 269 268 266 265 264 262 261 258
308 307 307 307 307 307 307 307 308 308 308 308 308 308 308 308 307 307 307 307 307 307 306 306 306 305 305 304 304 303 303 302 302 302 302 302 302 301 301 301 300 300 300 299 299 299 299 299 299 299 299 298 298 297 296 296 295 294 293 292 291 290 288 287 285 284 282 281 280 279 278 277 275 274 273 272 271 269 268 266 265 264 262 260 258 256
308 307 307 307 307 307 307 308 308 308 308 308 308 308 308 307 307 307 307 307 307 307 306 306 305 305 304 304 304 303 303 303 302 302 302 302 302 301 301 300 300 300 300 300 299 299 299 299 299 299 299 299 298 297 297 295 295 293 292 292 290 289 288 286 285 283 281 280 278 277 276 275 274 273 272 270 269 267 265 263 262 260 259 257 255 252
308 307 307 307 307 307 307 308 308 308 308 308 308 308 307 307 307 307 307 307 307 306 306 306 305 305 304 304 304 304 303 303 303 302 302 302 302 301 301 300 300 300 300 300 300 300 300 300 300 299 300 299 299 298 297 296 295 294 292 291 290 288 287 285 283 281 279 278 276 274 274 273 272 271 270 269 267 265 263 260 258 256 254 252 249 246
308 307 307 307 307 307 308 308 308 307 308 308 307 307 307 307 307 307 307 307 307 306 306 306 305 305 305 304 304 304 304 303 303 303 302 302 301 301 301 301 300 300 300 300 300 300 300 300 299 299 299 299 299 299 298 297 296 294 293 290 288 286 284 282 280 278 276 275 273 272 271 270 270 269 268 267 265 263 260 257 254 251 249 246 243 240
307 307 307 307 307 307 308 307 307 308 307 307 307 307 307 307 307 307 307 307 307 306 306 306 305 305 305 305 304 304 304 304 303 303 302 302 302 301 301 301 301 301 301 300 300 300 300 299 299 299 299 298 299 299 299 299 298 296 294 292 289 286 283 280 277 275 273 272 270 269 268 267 267 266 265 265 263 261 258 254 250 247 242 239 235 232
307 307 307 307 307 307 307 308 307 307 307 307 307 307 307 307 307 307 307 307 307 306 306 306 305 305 305 305 305 304 304 304 303 303 302 302 301 301 301 301 301 301 301 301 300 301 300 300 299 299 298 298 298 298 298 298 298 297 296 293 291 287 283 278 275 272 269 269 267 266 265 264 263 263 263 262 261 259 256 252 248 242 237 232 228 224
307 307 307 307 308 308 308 307 307 307 307 307 307 306 306 307 307 307 307 307 306 306 306 306 306 306 305 305 305 305 304 304 303 303 302 302 301 301 301 301 301 301 301 301 301 301 300 300 300 299 298 297 297 297 297 297 297 297 296 295 292 290 285 281 275 270 266 264 262 261 261 260 261 260 259 259 259 257 255 251 245 239 233 228 224 220
308 307 307 307 308 308 308 308 308 307 307 307 307 306 307 307 307 307 307 307 306 306 306 306 306 305 305 305 305 305 304 304 303 303 302 301 301 301 301 301 301 301 301 301 301 301 301 300 300 299 299 298 297 297 297 296 296 295 295 294 293 291 288 283 277 271 265 260 258 257 257 257 257 257 257 257 257 256 254 250 245 238 231 226 221 216
308 308 308 308 308 308 308 308 308 307 307 307 306 306 307 307 307 307 307 306 306 306 306 306 306 306 305 305 305 305 304 304 303 302 301 301 301 301 300 301 301 301 300 300 300 300 299 299 298 298 298 297 297 296 295 295 294 293 293 292 292 290 289 286 281 275 268 260 255 253 252 252 252 252 253 254 254 254 253 249 245 238 232 227 221 217
308 307 307 308 308 308 308 308 308 307 307 306 306 306 306 307 307 306 306 306 306 306 306 306 306 305 305 305 305 304 304 303 302 302 301 301 300 300 300 300 300 300 300 299 299 298 298 297 296 296 295 295 294 294 293 292 291 291 290 290 289 289 288 286 283 279 272 264 257 251 247 246 245 246 247 248 250 250 250 248 244 239 234 229 224 218
307 307 307 308 308 308 308 308 307 307 306 306 306 306 306 306 306 306 306 306 306 305 305 305 306 306 305 305 305 304 304 303 302 301 301 300 300 300 300 300 299 299 299 298 297 297 296 296 295 294 293 293 291 291 290 289 288 288 287 286 286 286 285 285 283 280 276 269 261 252 245 241 239 239 240 241 243 245 246 245 244 240 237 232 227 222
307 307 307 307 307 308 308 307 307 306 306 306 306 306 306 306 306 306 306 305 305 305 305 305 305 306 305 305 304 304 303 302 302 301 300 300 300 300 300 300 300 299 298 297 297 296 296 296 295 294 293 292 291 290 289 287 286 285 284 284 283 283 282 282 281 280 277 273 265 256 246 239 235 233 232 232 234 236 238 240 241 240 237 234 230 225
307 307 307 307 307 307 307 307 307 306 306 306 306 306 306 306 306 306 305 305 305 305 305 305 306 305 305 304 304 303 302 302 301 300 300 300 300 301 301 301 301 300 299 299 299 298 298 297 297 296 295 293 292 290 289 287 285 283 282 281 280 280 279 279 279 278 276 274 269 261 251 240 232 227 225 224 224 226 228 232 235 237 237 235 231 227
Height
10408 10406 10403 10401 10398 10394 10390 10387 10385 10382 10377 10375 10372 10369 10366 10363 10360 10357 10353 10351 10348 10345 10342 10339 10336 10333 10330 10326 10322 10319 10316 10313 10310 10307 10305 10302 10298 10295 10293 10289 10286 10283 10279 10276 10273 10270 10267 10265 10262 10260 10258 10257 10255 10253 10252 10252 10250 10249 10247 10245 10243 10242 10240 10238 10238 10237 10237 10237 10237 10236 10236 10236 10237 10237 10237 10238 10238 10238 10238 10238 10239 10240 10240 10242 10243 10244
10401 10398 10396 10393 10391 10387 10383 10380 10377 10375 10371 10368 10365 10362 10360 10357 10353 10349 10346 10343 10340 10337 10333 10330 10327 10324 10320 10317 10313 10310 10307 10303 10300 10297 10294 10291 10288 10284 10281 10278 10275 10272 10268 10265 10262 10258 10255 10253 10251 10248 10247 10245 10243 10242 10240 10240 10238 10237 10236 10234 10232 10230 10228 10227 10226 10225 10225 10225 10224 10223 10223 10223 10223 10223 10223 10224 10224 10225 10225 10225 10225 10226 10227 10228 10230 10231
10393 10390 10388 10386 10383 10380 10376 10372 10369 10367 10364 10360 10357 10355 10352 10349 10345 10342 10338 10335 10332 10328 10325 10322 10318 10315 10312 10308 10305 10302 10298 10295 10291 10287 10284 10280 10277 10273 10270 10267 10263 10260 10256 10253 10250 10247 10244 10242 10240 10237 10235 10233 10232 10230 10229 10228 10227 10226 10224 10222 10220 10218 10216 10215 10215 10214 10213 10213 10212 10211 10210 10210 10210 10210 10210 10210 10210 10211 10212 10212 10212 10213 10214 10216 10217 10218
10386 10383 10380 10378 10375 10372 10368 10365 10361 10358 10355 10353 10350 10347 10345 10342 10338 10335 10331 10328 10323 10320 10315 10312 10309 10306 10302 10298 10295 10292 10289 10285 10282 10278 10274 10270 10267 10263 10258 10255 10252 10248 10245 10241 10238 10235 10233 10231 10228 10226 10223 10222 10221 10220 10218 10217 10215 10214 10213 10210 10208 10207 10205 10204 10203 10203 10202 10201 10200 10199 10198 10198 10197 10197 10197 10196 10197 10197 10198 10198 10200 10200 10202 10203 10205 10206
10379 10376 10373 10370 10368 10364 10360 10357 10353 10350 10347 10345 10342 10340 10337 10333 10330 10327 10323 10320 10316 10312 10307 10303 10300 10297 10293 10288 10285 10282 10279 10275 10272 10268 10264 10260 10257 10252 10248 10243 10240 10236 10233 10230 10227 10224 10222 10220 10217 10215 10213 10212 10210 10208 10207 10205 10204 10203 10201 10198 10197 10195 10194 10193 10193 10192 10191 10190 10189 10188 10187 10186 10185 10184 10183 10183 10183 10184 10185 10187 10187 10188 10190 10191 10193 10194
10372 10369 10366 10363 10360 10357 10353 10350 10346 10342 10340 10337 10334 10332 10329 10325 10322 10318 10315 10311 10307 10303 10298 10294 10290 10287 10283 10278 10275 10271 10268 10265 10262 10258 10254 10250 10246 10242 10237 10232 10228 10224 10221 10218 10215 10213 10210 10208 10206 10204 10202 10200 10199 10198 10196 10194 10193 10191 10188 10187 10185 10183 10183 10182 10182 10181 10180 10178 10177 10176 10175 10173 10173 10172 10171 10171 10171 10172 10173 10174 10176 10177 10178 10180 10182 10183
10364 10361 10358 10355 10352 10348 10346 10342 10338 10335 10332 10328 10326 10323 10320 10317 10314 10310 10307 10302 10298 10293 10289 10285 10281 10277 10273 10268 10264 10260 10257 10254 10251 10247 10243 10240 10235 10231 10226 10222 10217 10213 10210 10207 10204 10202 10199 10197 10195 10193 10192 10190 10188 10187 10185 10183 10180 10178 10177 10175 10173 10172 10172 10172 10170 10169 10168 10167 10165 10164 10163 10162 10161 10160 10160 10160 10160 10162 10162 10163 10165 10166 10167 10168 10170 10172
10356 10353 10350 10348 10344 10340 10337 10333 10330 10327 10324 10320 10317 10314 10311 10308 10305 10301 10298 10293 10288 10283 10280 10275 10271 10267 10263 10258 10254 10250 10245 10242 10239 10236 10233 10228 10224 10220 10215 10212 10207 10203 10199 10196 10193 10190 10188 10186 10184 10182 10181 10180 10178 10176 10173 10170 10168 10166 10164 10163 10162 10161 10161 10160 10159 10157 10156 10155 10153 10152 10152 10150 10150 10150 10150 10150 10150 10151 10152 10153 10154 10155 10156 10158 10159 10160
10348 10345 10341 10338 10336 10332 10328 10323 10319 10317 10315 10312 10307 10303 10300 10297 10293 10290 10287 10283 10279 10275 10270 10265 10260 10256 10252 10248 10244 10240 10235 10231 10227 10223 10220 10217 10212 10208 10204 10200 10197 10193 10190 10186 10183 10180 10178 10175 10173 10172 10171 10170 10168 10165 10162 10159 10157 10154 10153 10152 10150 10150 10150 10148 10147 10145 10144 10143 10142 10141 10141 10140 10140 10140 10140 10140 10141 10142 10142 10143 10143 10144 10145 10147 10148 10150
10340 10337 10333 10329 10325 10323 10319 10314 10308 10305 10303 10300 10297 10293 10290 10287 10283 10279 10275 10271 10268 10265 10261 10256 10251 10246 10241 10236 10232 10228 10225 10222 10217 10212 10208 10205 10200 10196 10192 10189 10187 10183 10180 10177 10174 10171 10168 10166 10164 10162 10160 10159 10157 10155 10152 10150 10147 10144 10142 10141 10140 10139 10138 10137 10136 10135 10133 10132 10131 10131 10131 10131 10131 10131 10131 10131 10132 10132 10132 10132 10133 10133 10135 10136 10137 10138
10330 10327 10324 10320 10315 10312 10308 10304 10300 10295 10292 10289 10285 10280 10277 10275 10273 10270 10265 10260 10255 10253 10250 10245 10241 10236 10232 10226 10220 10216 10213 10210 10207 10202 10197 10193 10188 10185 10182 10178 10175 10173 10171 10168 10165 10162 10159 10157 10154 10152 10150 10149 10147 10145 10143 10140 10137 10135 10132 10131 10130 10128 10128 10127 10125 10125 10123 10123 10122 10122 10122 10122 10122 10122 10122 10122 10122 10122 10122 10122 10123 10124 10125 10126 10127 10128
10321 10317 10314 10310 10305 10301 10297 10292 10288 10285 10282 10278 10274 10269 10264 10262 10260 10259 10255 10250 10245 10241 10238 10234 10230 10225 10221 10217 10211 10205 10202 10199 10196 10192 10187 10182 10178 10173 10170 10167 10165 10163 10161 10158 10155 10153 10150 10147 10145 10143 10142 10140 10138 10136 10133 10130 10127 10125 10123 10122 10120 10119 10118 10117 10117 10115 10115 10114 10113 10113 10113 10113 10113 10112 10113 10112 10113 10113 10113 10113 10114 10115 10115 10116 10117 10118
10311 10307 10303 10299 10295 10290 10285 10282 10277 10273 10269 10266 10263 10259 10254 10250 10247 10245 10243 10238 10234 10230 10228 10224 10219 10213 10210 10206 10201 10196 10192 10188 10185 10182 10178 10173 10168 10164 10160 10157 10155 10152 10151 10148 10145 10143 10140 10138 10136 10135 10133 10131 10128 10126 10123 10120 10118 10116 10114 10113 10112 10111 10110 10109 10108 10107 10107 10106 10105 10105 10105 10104 10103 10103 10103 10103 10103 10104 10105 10105 10105 10106 10107 10107 10108 10108
10301 10297 10293 10288 10283 10279 10275 10271 10267 10262 10258 10254 10252 10248 10244 10240 10237 10233 10230 10227 10222 10218 10217 10213 10209 10203 10199 10195 10190 10186 10182 10177 10174 10172 10169 10165 10160 10155 10152 10148 10145 10143 10141 10138 10135 10133 10131 10130 10128 10127 10125 10122 10119 10117 10114 10112 10110 10108 10106 10105 10104 10103 10102 10102 10100 10100 10098 10098 10097 10097 10096 10096 10095 10095 10095 10095 10095 10095 10096 10097 10097 10098 10098 10099 10100 10100
10292 10287 10282 10277 10272 10268 10264 10260 10257 10252 10247 10243 10240 10238 10234 10230 10226 10222 10219 10215 10211 10207 10205 10202 10198 10193 10189 10185 10180 10176 10172 10167 10163 10161 10160 10156 10152 10147 10143 10139 10136 10133 10132 10129 10126 10124 10123 10122 10120 10118 10115 10113 10110 10107 10105 10103 10102 10100 10098 10098 10097 10096 10095 10094 10093 10092 10091 10090 10090 10089 10088 10088 10088 10087 10087 10087 10088 10088 10088 10089 10089 10090 10090 10091 10092 10093
10283 10278 10273 10267 10262 10258 10254 10250 10247 10242 10237 10233 10230 10227 10224 10220 10216 10212 10208 10204 10200 10197 10194 10191 10187 10183 10178 10174 10170 10167 10162 10157 10154 10152 10150 10147 10142 10137 10133 10130 10127 10125 10123 10121 10118 10117 10116 10114 10112 10109 10107 10104 10102 10100 10098 10096 10094 10093 10092 10091 10090 10089 10088 10087 10086 10085 10084 10083 10082 10082 10082 10081 10081 10080 10080 10080 10081 10081 10082 10082 10082 10083 10083 10083 10085 10086
10273 10268 10263 10258 10253 10248 10244 10240 10237 10232 10227 10224 10221 10218 10215 10211 10207 10203 10199 10194 10190 10187 10184 10180 10177 10172 10167 10163 10160 10157 10153 10150 10146 10143 10142 10138 10132 10127 10123 10121 10119 10117 10115 10113 10112 10110 10108 10106 10103 10101 10099 10097 10095 10092 10090 10088 10087 10087 10086 10085 10084 10083 10082 10080 10079 10078 10077 10077 10076 10075 10075 10075 10074 10074 10074 10074 10074 10074 10075 10075 10075 10076 10077 10077 10078 10078
10263 10258 10253 10248 10243 10238 10234 10230 10227 10222 10218 10213 10210 10208 10205 10201 10197 10193 10190 10185 10182 10177 10173 10170 10166 10162 10158 10153 10149 10146 10145 10142 10138 10135 10133 10129 10123 10118 10114 10112 10111 10110 10108 10106 10104 10102 10100 10098 10096 10094 10092 10090 10087 10085 10083 10083 10082 10080 10080 10079 10078 10077 10075 10074 10073 10072 10072 10070 10070 10069 10068 10068 10068 10068 10068 10068 10068 10068 10068 10068 10069 10070 10070 10070 10072 10072
10252 10247 10242 10237 10233 10228 10223 10219 10216 10212 10208 10204 10200 10197 10194 10190 10187 10184 10180 10176 10172 10168 10163 10159 10155 10152 10148 10144 10140 10137 10135 10133 10131 10128 10125 10120 10113 10108 10105 10105 10104 10103 10101 10098 10097 10095 10093 10092 10089 10087 10085 10083 10080 10079 10078 10077 10076 10075 10074 10073 10072 10070 10070 10068 10067 10067 10065 10065 10064 10063 10063 10063 10062 10062 10062 10062 10062 10062 10062 10063 10063 10063 10064 10065 10065 10066
10241 10236 10231 10227 10223 10218 10213 10208 10205 10202 10199 10195 10192 10188 10183 10180 10177 10174 10170 10166 10162 10157 10153 10150 10145 10142 10138 10135 10132 10128 10127 10125 10123 10121 10117 10111 10105 10100 10098 10098 10098 10096 10093 10091 10090 10088 10087 10085 10083 10080 10078 10076 10075 10073 10072 10072 10070 10070 10068 10067 10066 10065 10063 10063 10062 10061 10060 10060 10058 10058 10058 10057 10057 10057 10057 10057 10057 10057 10057 10057 10057 10058 10058 10058 10059 10060
10231 10225 10219 10215 10212 10208 10203 10198 10195 10192 10188 10185 10182 10178 10173 10170 10167 10163 10160 10156 10152 10147 10143 10140 10137 10133 10130 10126 10123 10120 10119 10118 10116 10113 10108 10103 10097 10093 10093 10093 10092 10089 10086 10084 10083 10082 10080 10078 10076 10074 10072 10070 10069 10068 10067 10067 10065 10064 10063 10062 10060 10060 10058 10057 10057 10056 10055 10054 10053 10053 10052 10052 10052 10052 10051 10051 10051 10051 10052 10052 10052 10052 10053 10053 10053 10054
10222 10215 10210 10205 10200 10197 10193 10188 10185 10182 10178 10176 10172 10168 10163 10160 10157 10152 10148 10145 10142 10138 10135 10132 10128 10124 10121 10117 10115 10113 10112 10111 10108 10105 10100 10095 10090 10087 10087 10087 10085 10082 10079 10078 10077 10076 10074 10072 10070 10068 10066 10065 10064 10063 10062 10061 10060 10059 10058 10057 10055 10055 10053 10052 10052 10050 10050 10049 10048 10048 10047 10047 10047 10046 10046 10046 10046 10046 10047 10047 10047 10047 10048 10048 10048 10049
10211 10205 10200 10194 10190 10185 10182 10178 10175 10172 10169 10166 10162 10158 10155 10151 10147 10143 10138 10135 10132 10129 10127 10123 10120 10116 10113 10110 10108 10106 10105 10104 10102 10098 10093 10088 10084 10082 10082 10080 10078 10075 10073 10072 10072 10070 10068 10066 10064 10062 10061 10060 10059 10058 10057 10056 10055 10054 10053 10052 10051 10050 10048 10048 10047 10046 10045 10044 10043 10043 10042 10042 10042 10042 10042 10042 10042 10042 10042 10042 10042 10043 10043 10043 10044 10045
10200 10194 10188 10183 10179 10175 10172 10168 10165 10162 10159 10156 10152 10149 10145 10142 10138 10134 10130 10127 10124 10121 10118 10115 10112 10108 10105 10103 10102 10100 10098 10097 10094 10090 10087 10083 10080 10077 10076 10074 10072 10070 10068 10067 10067 10065 10062 10060 10058 10057 10056 10055 10054 10053 10052 10052 10050 10050 10048 10047 10046 10045 10044 10043 10042 10042 10040 10040 10039 10038 10038 10038 10037 10037 10037 10037 10037 10037 10037 10037 10038 10038 10039 10039 10040 10040
10190 10184 10178 10173 10170 10166 10163 10160 10157 10153 10149 10146 10142 10139 10137 10133 10130 10127 10123 10120 10117 10114 10111 10108 10105 10102 10098 10097 10095 10093 10092 10090 10087 10084 10081 10078 10075 10072 10070 10068 10067 10065 10063 10062 10061 10060 10057 10055 10053 10052 10051 10050 10049 10048 10048 10047 10046 10045 10044 10043 10042 10041 10040 10039 10038 10037 10037 10035 10035 10034 10034 10033 10033 10033 10033 10033 10033 10033 10033 10033 10034 10034 10035 10036 10036 10037
10180 10175 10170 10165 10162 10158 10155 10151 10147 10143 10140 10136 10133 10130 10127 10125 10122 10119 10116 10112 10109 10107 10103 10101 10098 10095 10093 10090 10089 10087 10085 10083 10080 10078 10075 10073 10070 10067 10065 10063 10062 10060 10058 10057 10056 10054 10052 10050 10048 10047 10047 10045 10045 10044 10043 10043 10042 10041 10040 10038 10038 10037 10036 10035 10034 10033 10032 10032 10031 10030 10030 10030 10030 10029 10029 10029 10030 10030 10030 10030 10030 10031 10032 10032 10032 10033
10170 10165 10160 10156 10152 10149 10145 10141 10138 10134 10131 10127 10124 10122 10119 10117 10114 10112 10109 10106 10103 10100 10097 10094 10092 10089 10087 10085 10083 10081 10079 10077 10074 10072 10070 10067 10065 10062 10060 10058 10057 10055 10054 10053 10052 10050 10047 10045 10043 10043 10042 10042 10041 10040 10040 10039 10038 10037 10036 10035 10033 10033 10032 10031 10030 10030 10028 10028 10027 10027 10027 10026 10026 10026 10026 10026 10026 10026 10026 10027 10027 10027 10028 10028 10029 10030
10160 10155 10151 10147 10143 10140 10136 10133 10129 10126 10122 10119 10116 10113 10112 10110 10107 10105 10102 10099 10096 10093 10090 10088 10086 10084 10082 10079 10077 10075 10073 10071 10068 10066 10064 10062 10060 10057 10055 10054 10052 10051 10050 10048 10047 10045 10043 10041 10040 10039 10038 10038 10037 10037 10036 10035 10034 10033 10032 10031 10030 10029 10028 10028 10027 10026 10025 10025 10024 10023 10023 10023 10023 10023 10023 10023 10023 10023 10023 10023 10023 10024 10025 10025 10025 10026
10152 10147 10143 10139 10135 10132 10128 10125 10122 10118 10115 10112 10109 10107 10105 10103 10100 10098 10095 10093 10090 10087 10085 10083 10081 10079 10077 10074 10072 10070 10068 10066 10063 10061 10059 10057 10055 10053 10052 10050 10048 10047 10046 10045 10043 10041 10039 10037 10036 10035 10035 10035 10034 10033 10032 10032 10030 10029 10028 10027 10027 10026 10025 10024 10023 10023 10022 10022 10021 10021 10020 10020 10020 10020 10020 10020 10020 10020 10020 10020 10021 10021 10022 10022 10022 10023
10144 10140 10136 10132 10128 10125 10122 10118 10115 10112 10108 10105 10103 10100 10098 10097 10094 10092 10089 10087 10085 10082 10080 10077 10075 10073 10071 10069 10067 10065 10063 10060 10058 10057 10055 10053 10051 10048 10047 10046 10044 10043 10042 10040 10039 10037 10035 10033 10032 10032 10032 10032 10031 10030 10029 10028 10027 10026 10025 10024 10023 10023 10022 10021 10020 10020 10019 10018 10018 10018 10018 10017 10017 10017 10017 10017 10017 10017 10017 10018 10018 10018 10018 10019 10020 10020
10137 10133 10130 10125 10122 10118 10115 10112 10108 10105 10102 10100 10097 10095 10093 10090 10088 10086 10083 10082 10079 10077 10075 10072 10070 10068 10067 10065 10062 10060 10057 10055 10053 10052 10050 10048 10047 10045 10043 10042 10040 10038 10038 10037 10035 10033 10032 10030 10029 10028 10028 10028 10027 10027 10026 10025 10023 10023 10022 10021 10020 10020 10019 10018 10018 10017 10017 10016 10015 10015 10015 10015 10015 10014 10014 10014 10014 10014 10015 10015 10015 10015 10016 10016 10017 10017
10132 10127 10123 10120 10117 10113 10109 10105 10102 10099 10097 10094 10092 10090 10087 10085 10083 10080 10078 10076 10074 10072 10070 10068 10065 10063 10062 10060 10058 10055 10052 10050 10049 10048 10047 10045 10043 10041 10040 10038 10037 10035 10033 10033 10032 10031 10029 10027 10025 10025 10025 10025 10024 10023 10022 10022 10020 10020 10019 10018 10018 10017 10016 10016 10015 10015 10014 10013 10013 10013 10012 10012 10012 10012 10012 10012 10012 10012 10012 10013 10013 10013 10013 10014 10014 10015
10125 10121 10118 10114 10110 10107 10103 10100 10097 10094 10092 10089 10087 10085 10082 10080 10078 10075 10073 10072 10070 10067 10065 10063 10061 10059 10057 10055 10053 10050 10048 10046 10045 10043 10042 10041 10039 10037 10035 10035 10033 10031 10030 10029 10028 10027 10026 10024 10023 10022 10022 10022 10021 10020 10019 10018 10018 10017 10017 10016 10015 10014 10013 10013 10013 10012 10012 10011 10010 10010 10010 10010 10010 10010 10010 10010 10010 10010 10010 10010 10010 10011 10012 10012 10012 10013
10118 10115 10112 10108 10105 10101 10098 10095 10092 10089 10087 10085 10082 10080 10077 10075 10073 10070 10068 10067 10065 10063 10061 10058 10057 10055 10053 10051 10048 10046 10044 10042 10040 10040 10038 10037 10035 10033 10032 10031 10030 10028 10027 10025 10024 10023 10022 10022 10020 10020 10019 10018 10018 10017 10017 10016 10015 10015 10014 10013 10013 10012 10011 10011 10010 10010 10009 10008 10008 10008 10007 10007 10007 10007 10007 10007 10007 10008 10008 10008 10008 10008 10009 10010 10010 10011
10112 10109 10105 10102 10098 10095 10092 10089 10087 10085 10082 10080 10078 10075 10073 10070 10068 10066 10064 10062 10060 10058 10056 10054 10052 10050 10048 10047 10045 10042 10040 10038 10037 10036 10035 10033 10032 10030 10028 10027 10026 10025 10023 10022 10021 10020 10019 10018 10018 10017 10017 10015 10015 10014 10014 10013 10013 10012 10012 10011 10010 10010 10009 10008 10008 10007 10007 10007 10006 10005 10005 10005 10005 10005 10005 10005 10006 10006 10006 10007 10007 10007 10008 10008 10008 10010
10107 10103 10100 10097 10093 10090 10087 10084 10082 10080 10077 10075 10073 10070 10068 10066 10063 10062 10060 10057 10056 10054 10052 10050 10048 10047 10045 10043 10041 10039 10037 10035 10033 10032 10031 10030 10029 10027 10026 10024 10023 10022 10021 10019 10018 10017 10016 10015 10015 10014 10014 10013 10012 10012 10012 10011 10010 10010 10009 10008 10008 10008 10007 10007 10006 10005 10005 10005 10004 10003 10003 10003 10003 10003 10003 10004 10004 10005 10005 10005 10005 10006 10007 10007 10008 10008
10101 10097 10094 10091 10088 10085 10082 10079 10077 10075 10072 10070 10068 10066 10063 10062 10059 10057 10055 10053 10052 10050 10048 10047 10045 10043 10041 10039 10037 10035 10033 10032 10030 10029 10028 10027 10025 10024 10023 10021 10020 10019 10018 10017 10015 10014 10013 10012 10012 10012 10011 10011 10010 10010 10009 10008 10008 10008 10007 10007 10007 10006 10005 10005 10004 10004 10003 10003 10002 10002 10002 10002 10002 10002 10002 10003 10003 10003 10003 10004 10004 10005 10005 10006 10007 10007
10096 10092 10089 10085 10082 10080 10077 10074 10072 10070 10068 10065 10063 10061 10059 10057 10055 10053 10051 10050 10048 10046 10045 10043 10041 10039 10037 10036 10034 10032 10031 10029 10028 10026 10025 10023 10022 10021 10020 10018 10017 10016 10015 10014 10013 10012 10011 10010 10009 10008 10008 10008 10008 10008 10007 10007 10007 10006 10005 10005 10005 10004 10003 10003 10003 10002 10002 10002 10001 10000 10000 10000 10000 10000 10001 10001 10002 10002 10003 10003 10003 10004 10005 10005 10006 10007
10090 10087 10083 10080 10078 10075 10072 10070 10067 10065 10063 10061 10059 10057 10055 10053 10051 10049 10047 10046 10044 10043 10041 10039 10037 10036 10034 10032 10031 10029 10028 10026 10025 10023 10022 10020 10019 10018 10017 10016 10015 10013 10012 10012 10011 10010 10009 10008 10007 10007 10006 10005 10005 10005 10005 10005 10005 10004 10003 10003 10003 10003 10002 10002 10001 10001 10000 10000 10000 9999 9999 9998 9998 9999 9999 10000 10000 10001 10002 10002 10003 10003 10004 10005 10005 10006
10085 10082 10078 10076 10073 10070 10068 10065 10063 10061 10058 10057 10055 10053 10051 10049 10047 10045 10044 10042 10041 10039 10038 10036 10034 10033 10031 10029 10028 10027 10025 10023 10022 10020 10019 10018 10017 10015 10015 10013 10012 10011 10010 10009 10008 10008 10007 10006 10005 10004 10004 10003 10003 10003 10003 10003 10003 10002 10002 10002 10002 10001 10001 10000 10000 9999 9999 9998 9998 9998 9998 9997 9997 9998 9998 9998 9999 10000 10000 10001 10002 10003 10003 10004 10005 10005
10080 10077 10074 10071 10068 10066 10064 10062 10059 10057 10055 10053 10051 10049 10047 10045 10043 10042 10040 10039 10038 10036 10035 10033 10031 10030 10028 10027 10025 10023 10022 10020 10019 10018 10017 10015 10014 10013 10012 10011 10010 10009 10008 10007 10006 10005 10005 10004 10003 10002 10002 10001 10001 10000 10000 10000 10000 10000 10000 10000 10000 10000 9999 9999 9998 9998 9998 9997 9997 9997 9997 9997 9997 9997 9997 9997 9998 9998 10000 10000 10001 10002 10003 10003 10004 10005
10075 10072 10069 10067 10064 10062 10060 10058 10055 10053 10051 10049 10047 10045 10043 10042 10040 10039 10037 10036 10034 10033 10031 10030 10028 10027 10025 10023 10022 10020 10019 10018 10017 10015 10014 10013 10012 10010 10010 10008 10008 10007 10006 10005 10004 10003 10003 10002 10002 10001 10000 9999 9998 9998 9998 9998 9998 9998 9998 9998 9998 9998 9998 9997 9997 9997 9997 9996 9996 9995 9995 9995 9995 9995 9995 9996 9997 9998 9998 9999 10000 10001 10002 10003 10003 10005
10070 10067 10065 10062 10060 10058 10056 10054 10052 10050 10047 10045 10043 10042 10040 10038 10037 10036 10034 10033 10032 10030 10028 10027 10025 10024 10022 10021 10019 10018 10017 10015 10014 10013 10012 10010 10010 10008 10007 10007 10005 10005 10004 10003 10002 10002 10001 10000 10000 9999 9998 9997 9997 9997 9996 9995 9995 9995 9996 9996 9996 9997 9997 9996 9996 9995 9995 9995 9995 9995 9994 9994 9994 9994 9995 9995 9996 9997 9998 9998 10000 10001 10002 10002 10003 10004
10065 10063 10060 10058 10057 10054 10052 10050 10048 10046 10044 10042 10040 10038 10037 10035 10034 10033 10031 10030 10028 10027 10025 10024 10022 10021 10020 10018 10017 10015 10014 10013 10012 10010 10009 10008 10007 10006 10005 10004 10003 10003 10002 10001 10000 10000 9999 9998 9998 9997 9997 9996 9995 9995 9994 9993 9993 9993 9993 9993 9994 9995 9995 9995 9995 9995 9994 9994 9993 9993 9993 9993 9993 9993 9993 9994 9995 9996 9997 9998 9999 10000 10001 10002 10002 10003
10061 10058 10056 10054 10052 10050 10048 10047 10045 10043 10040 10038 10037 10035 10033 10032 10031 10030 10028 10027 10025 10024 10022 10021 10020 10018 10017 10016 10015 10013 10012 10011 10010 10008 10007 10006 10005 10004 10003 10002 10002 10001 10000 9999 9998 9998 9997 9997 9996 9995 9995 9994 9993 9993 9993 9992 9992 9992 9991 9991 9992 9992 9993 9993 9993 9993 9993 9993 9993 9993 9992 9992 9993 9993 9993 9993 9994 9995 9996 9997 9998 9999 10000 10001 10002 10002
10057 10054 10052 10050 10048 10047 10045 10043 10041 10039 10037 10035 10033 10032 10030 10029 10028 10027 10025 10024 10022 10021 10020 10018 10017 10016 10015 10013 10012 10011 10010 10008 10008 10007 10005 10004 10003 10002 10002 10001 10000 9999 9998 9998 9997 9997 9996 9995 9995 9994 9993 9993 9992 9992 9991 9990 9990 9990 9989 9989 9989 9990 9990 9991 9991 9992 9992 9992 9992 9992 9992 9992 9992 9992 9992 9993 9993 9994 9995 9997 9997 9998 9999 10000 10001 10002
10052 10050 10048 10046 10045 10043 10041 10040 10038 10036 10034 10032 10030 10029 10027 10026 10025 10023 10022 10021 10020 10018 10017 10016 10015 10013 10012 10011 10010 10009 10008 10007 10005 10005 10003 10003 10002 10001 10000 9999 9998 9998 9997 9996 9995 9995 9994 9993 9993 9992 9992 9991 9990 9990 9990 9989 9988 9988 9988 9987 9987 9987 9988 9988 9989 9990 9990 9990 9991 9991 9991 9991 9991 9992 9992 9992 9993 9993 9994 9995 9997 9997 9998 9999 10000 10001
10048 10045 10044 10042 10041 10039 10038 10036 10034 10032 10030 10029 10027 10026 10025 10023 10022 10021 10020 10018 10017 10016 10015 10013 10012 10011 10010 10009 10008 10007 10006 10005 10003 10003 10002 10001 10000 10000 9998 9998 9997 9997 9996 9995 9994 9993 9993 9992 9992 9991 9990 9990 9989 9988 9988 9987 9987 9987 9986 9986 9985 9985 9985 9986 9987 9987 9988 9988 9990 9990 9990 9990 9991 9991 9992 9992 9992 9993 9993 9995 9995 9996 9997 9998 9999 10000
10044 10042 10040 10038 10037 10036 10034 10032 10031 10029 10027 10026 10024 10023 10022 10021 10020 10018 10017 10016 10015 10013 10012 10011 10010 10009 10008 10007 10006 10005 10003 10003 10002 10001 10000 10000 9998 9998 9997 9997 9996 9995 9995 9994 9993 9992 9992 9991 9990 9989 9988 9988 9988 9987 9987 9986 9985 9985 9985 9984 9984 9983 9983 9983 9984 9985 9985 9987 9988 9988 9989 9990 9990 9990 9991 9992 9992 9992 9993 9993 9994 9995 9996 9997 9998 9999
10040 10038 10037 10035 10034 10032 10031 10029 10028 10026 10024 10023 10022 10020 10019 10018 10017 10016 10015 10013 10012 10011 10010 10009 10008 10007 10006 10005 10003 10003 10002 10001 10000 9999 9998 9998 9997 9997 9996 9995 9995 9994 9993 9992 9992 9991 9990 9990 9988 9988 9987 9987 9986 9985 9985 9985 9984 9983 9983 9983 9982 9982 9982 9982 9982 9983 9983 9984 9985 9987 9988 9988 9989 9990 9990 9991 9992 9992 9992 9993 9993 9994 9995 9996 9997 9998
10037 10035 10033 10032 10031 10029 10028 10026 10025 10023 10022 10020 10019 10018 10017 10015 10014 10013 10012 10011 10010 10009 10008 10007 10006 10005 10004 10003 10002 10001 10000 9999 9998 9998 9997 9996 9995 9995 9994 9993 9993 9992 9992 9991 9990 9990 9988 9988 9987 9987 9986 9985 9985 9984 9983 9983 9982 9982 9982 9981 9980 9980 9980 9980 9980 9980 9981 9982 9983 9984 9985 9987 9988 9989 9990 9990 9991 9992 9992 9992 9993 9993 9994 9995 9996 9997